Volver al catálogo

SL-14 DEB

ActivoPO
NORAD 26017·DEBRIS·🇷🇺 Russia

Lanzado Sep 28, 1991 desde Plesetsk Cosmodrome

Loading…

Próximos Pases (próximas 24 horas)

TLE

ActualizadoSource: Space-Track

Época: Sep 14, 2026, 10:34 UTC

1 26017U 91068AC  26257.44084884  .00000001  00000-0 -64039-4 0  9990
2 26017  82.6866 250.2093 0060419  22.5485 131.2116 12.43346804590982

Sigue SL-14 DEB en tiempo real con AllMySat

Download on the App Store